Weather History for SANT - January, 2013

Change the Weather History Date:

Tuesday, January 8, 2013

  Actual Average Record
Temperature  
Mean Temperature 82 °F -  
Max Temperature 92 °F 87 °F 100 °F (2005)
Min Temperature 71 °F 68 °F 66 °F (2002)
Cooling Degree Days 16    
Growing Degree Days 32 (Base 50)    
Moisture  
Dew Point 73 °F    
Average Humidity 76    
Maximum Humidity 100    
Minimum Humidity 53    
Precipitation  
Precipitation 1.02 in - - ()
Sea Level Pressure  
Sea Level Pressure 29.74 in    
Wind  
Wind Speed 6 mph ()    
Max Wind Speed 21 mph    
Max Gust Speed 25 mph    
Visibility 6.4 miles    
Events Rain , Thunderstorm    
Averages and records for this station are not official NWS values.
T = Trace of Precipitation, MM = Missing Value Source: Averaged Metar Reports

Daily Weather History Graph

Daily Weather History Graph

Search for Another Location

Airport or City:

Trip Planner

Search our weather history database for the weather conditions in past years. The results will help you decide how hot, cold, wet, or windy it might be!

Date:

Astronomy

Jan. 08, 2013 Rise Set
Actual Time 6:35 AM ART 8:18 PM ART
Civil Twilight 6:09 AM ART 8:44 PM ART
Nautical Twilight 5:38 AM ART 9:16 PM ART
Astronomical Twilight 5:05 AM ART 9:49 PM ART
Moon 3:14 AM ART (1/8) 5:11 PM ART (1/8)
Length of Visible Light 14h 35m
Length of Day
13h 43m
Waning Crescent, 14% of the Moon is Illuminated
Jan 8
Waning Crescent
Jan 11
New
Jan 18
First Quarter
Jan 27
Full
Feb 3
Last Quarter

Hourly Weather History & Observations

Time (ART) Temp. Heat Index Dew Point Humidity Pressure Visibility Wind Dir Wind Speed Gust Speed Precip Events Conditions
12:00 AM 77.0 °F - 73.4 °F 89% 29.71 in - West 4.6 mph - N/A   Clear
1:00 AM 75.2 °F - 71.6 °F 89% 29.71 in - West 4.6 mph - N/A   Clear
2:00 AM 73.4 °F - 69.8 °F 88% 29.71 in - North 4.6 mph - N/A   Clear
3:00 AM 73 °F - 71 °F 90% 29.62 in 9 mi West 4.6 mph - -  
3:00 AM 73.4 °F - 69.8 °F 88% 29.71 in - West 4.6 mph - N/A   Clear
4:00 AM 71.6 °F - 68.0 °F 88% 29.71 in - North 4.6 mph - N/A   Clear
5:00 AM 71.6 °F - 69.8 °F 94% 29.71 in - North 9.2 mph - N/A   Clear
6:00 AM 71.6 °F - 68.0 °F 88% 29.71 in - West 9.2 mph - N/A   Clear
7:00 AM 71.6 °F - 66.2 °F 83% 29.71 in - West 6.9 mph - N/A   Clear
8:00 AM 75.2 °F - 68.0 °F 78% 29.74 in - NW 6.9 mph - N/A   Clear
9:00 AM 80 °F - 69 °F 62% 29.65 in 9 mi NW 6.9 mph - -  
9:00 AM 80.6 °F 83.9 °F 69.8 °F 70% 29.77 in - NW 6.9 mph - N/A   Clear
10:00 AM 86.0 °F 91.8 °F 71.6 °F 62% 29.77 in 6.2 mi Calm Calm - N/A   Partly Cloudy
11:00 AM 87.8 °F 95.6 °F 73.4 °F 62% 29.77 in 6.2 mi SW 5.8 mph - N/A   Partly Cloudy
12:00 PM 89.6 °F 98.2 °F 73.4 °F 59% 29.77 in 6.2 mi SW 4.6 mph - N/A   Scattered Clouds
1:00 PM 87.8 °F 97.6 °F 75.2 °F 66% 29.77 in 6.2 mi South 11.5 mph - N/A   Scattered Clouds
2:00 PM 91.4 °F 105.1 °F 77.0 °F 63% 29.77 in 6.2 mi SW 13.8 mph - N/A   Scattered Clouds
3:00 PM 91 °F - 76 °F 53% 29.64 in 9 mi South 10.4 mph - -   Partly Cloudy
3:00 PM 91.4 °F 102.5 °F 75.2 °F 59% 29.74 in 6.2 mi South 10.4 mph - N/A   Partly Cloudy
4:00 PM 91.4 °F 102.5 °F 75.2 °F 59% 29.74 in 6.2 mi SW 4.6 mph - N/A   Scattered Clouds
5:00 PM 87.8 °F 97.6 °F 75.2 °F 66% 29.71 in 6.2 mi SW 9.2 mph - N/A   Scattered Clouds
6:00 PM 86.0 °F 95.1 °F 75.2 °F 70% 29.71 in 6.2 mi SW 11.5 mph - N/A   Mostly Cloudy
7:00 PM 86.0 °F 95.1 °F 75.2 °F 70% 29.71 in 6.2 mi South 9.2 mph - N/A   Mostly Cloudy
7:10 PM 86.0 °F 95.1 °F 75.2 °F 70% 29.71 in 5.6 mi South 9.2 mph - N/A   Partly Cloudy
8:00 PM 84.2 °F 94.1 °F 77.0 °F 79% 29.74 in 6.2 mi West 4.6 mph - N/A   Partly Cloudy
9:00 PM 83 °F - 76 °F 74% 29.71 in 9 mi South 11.5 mph - - Thunderstorm Thunderstorm
9:00 PM 82.4 °F 89.5 °F 75.2 °F 79% 29.80 in 6.2 mi South 11.5 mph - N/A   Scattered Clouds
10:00 PM 71.6 °F - 71.6 °F 100% 29.89 in 2.5 mi South 20.7 mph 25.3 mph N/A Rain , Thunderstorm Heavy Thunderstorms and Rain
11:00 PM 71.6 °F - 71.6 °F 100% 29.98 in 3.7 mi South 9.2 mph - N/A Rain , Thunderstorm Thunderstorms and Rain